Flag for U.S.A. Weather past 2 weeks in Syracuse, New York, U.S.A.

Now
26 °F

Light snow. Ice fog.


Feels Like: 14 °F
Forecast: 7 / 29 °F
Wind: 14 mph from South

Location: Syracuse Hancock International Airport

Current Time: Jan 30, 2015 at 12:52:40 AM

Latest Report: Jan 29, 2015 at 11:54 PM


Visibility: 1 mi

Pressure: 29.80 "Hg

Humidity: 92%

Dew point: 24 °F

Location of SyracuseLocation

Historic Weather in Syracuse — Graph

°F

Syracuse temperature yesterday

Maximum temperature yesterday: 35 °F (at 4:54 PM)
Minimum temperature yesterday: 1 °F (at 6:54 AM)
Average temperature yesterday: 19 °F

Past Weeks' High & Low Weather Summary

 TemperatureHumidityPressure
High41 °F (Jan 18, 1:54 PM)100% (Jan 16, 8:00 AM)30.39 "Hg (Jan 16, 8:00 AM)
Low-4 °F (Jan 15, 6:54 AM)29% (Jan 29, 4:54 PM)29.45 "Hg (Jan 24, 8:54 PM)
Average18 °F75%30.00 "Hg
* Reported Jan 14 10:54 PM — Jan 29 10:54 PM, Syracuse, Weather by CustomWeather, © 2014

Note: Actual official high and low records may vary slightly from our data, if they occured in-between our weather recording intervals... More about our weather records

Advertising

Syracuse weather history for previous 24 hours

 ConditionsComfort  
Time TempWeatherWind HumidityBarometerVisibility
10:54 PM
Jan 29
28 °FLight snow. Overcast.8 mph81%29.80 "Hg9 mi
9:54 PM28 °FLight snow. Overcast.8 mph85%29.82 "Hg8 mi
8:57 PM27 °FLight snow. Ice fog.8 mph92%29.82 "Hg2 mi
8:01 PM26 °FLight snow. Ice fog.9 mph100%29.84 "Hg1 mi
7:54 PM26 °FLight snow. Ice fog.9 mph100%29.85 "Hg1 mi
6:54 PM29 °FLight snow. Mostly cloudy.8 mph79%29.85 "Hg3 mi
6:03 PM32 °FLight snow. Mostly cloudy.21 mph56%29.83 "Hg9 mi
5:54 PM32 °FLight snow. Mostly cloudy.16 mph59%29.83 "Hg8 mi
4:54 PM35 °FMostly cloudy.18 mph29%29.83 "Hg10 mi
3:54 PM34 °FOvercast.16 mph31%29.86 "Hg10 mi
2:54 PM32 °FOvercast.14 mph35%29.88 "Hg10 mi
1:54 PM30 °FOvercast.15 mph40%29.93 "Hg10 mi
12:54 PM30 °FLight snow. Mostly cloudy.14 mph36%29.98 "Hg9 mi
11:54 AM22 °FMostly cloudy.5 mph55%30.06 "Hg10 mi
10:54 AM17 °FCloudy.12 mph68%30.10 "Hg10 mi
9:54 AM13 °FMostly cloudy.5 mph70%30.16 "Hg10 mi
8:54 AM7 °FMore clouds than sun.9 mph83%30.19 "Hg10 mi
7:54 AM2 °FBroken clouds.7 mph88%30.22 "Hg10 mi
6:54 AM1 °FPartly cloudy.5 mph92%30.26 "Hg10 mi
5:54 AM2 °FPassing clouds.7 mph92%30.27 "Hg10 mi
4:54 AM2 °FPassing clouds.8 mph92%30.29 "Hg10 mi
3:54 AM2 °FPassing clouds.6 mph92%30.30 "Hg10 mi
2:54 AM3 °FPassing clouds.6 mph87%30.32 "Hg10 mi
1:54 AM4 °FPassing clouds.6 mph88%30.32 "Hg10 mi
12:54 AM4 °FPassing clouds.7 mph88%30.33 "Hg10 mi
Weather by CustomWeather, © 2014

See weather overviewHow to use our weather pages